Overview Statistics Trail Chart Weather Telemetry Raw packets
 

This is the latest recevied weather packets stored in our database for station/object SP9TKN-1. If no packets are shown the sender has not sent any weather packets the latest 10 day(s).

<< 34 35 36 37 38 >>
Time Temp. Humidity Pressure Rain* Wind** Luminosity Snow
1787744980 22.22° C 40% 995.8 hPa - - - -
1787744080 22.78° C 41% 995.8 hPa - - - -
1787743180 22.78° C 43% 995.7 hPa - - - -
1787742280 22.22° C 45% 995.8 hPa - - - -
1787741380 21.67° C 45% 995.9 hPa - - - -
1787740480 21.67° C 46% 995.9 hPa - - - -
1787739580 21.11° C 47% 995.9 hPa - - - -
1787737780 20° C 51% 995.9 hPa - - - -
1787736880 20° C 51% 996 hPa - - - -
1787735979 20.56° C 50% 996.1 hPa - - - -
1787735079 20° C 51% 996 hPa - - - -
1787734178 19.44° C 55% 996 hPa - - - -
1787733280 19.44° C 55% 995.9 hPa - - - -
1787732380 18.89° C 59% 995.8 hPa - - - -
1787731480 18.89° C 59% 995.7 hPa - - - -
1787730580 18.33° C 61% 995.6 hPa - - - -
1787729680 18.33° C 62% 995.5 hPa - - - -
1787728780 17.78° C 61% 995.5 hPa - - - -
1787727880 17.78° C 64% 995.4 hPa - - - -
1787726979 17.22° C 67% 995.3 hPa - - - -
1787726079 16.67° C 69% 995.2 hPa - - - -
1787725179 16.67° C 71% 995.2 hPa - - - -
1787724279 16.11° C 72% 995 hPa - - - -
1787722479 15.56° C 76% 995 hPa - - - -
1787721580 15.56° C 77% 994.9 hPa - - - -

* Rain since midnight (hover to see other rain measurements)
** Current wind speed in m/s (hover to see current wind gust speed)